Valley City, ND

6:24 PM CST on January 20, 2017 (GMT -0600)
Valley City

Weather History for KBAC - December, 2011

Change the Weather History Date:

Monday, December 26, 2011

  Actual Average (KJMS) Record (KJMS)
Temperature  
Mean Temperature 38 °F -  
Max Temperature 48 °F 20 °F 48 °F (2005)
Min Temperature 28 °F 1 °F -29 °F (1950)
Degree Days  
Heating Degree Days 27    
Moisture  
Dew Point 25 °F    
Average Humidity 61    
Maximum Humidity 75    
Minimum Humidity 37    
Precipitation  
Precipitation 0.20 in - - ()
Sea Level Pressure  
Sea Level Pressure 29.60 in    
Wind  
Wind Speed 21 mph (WSW)    
Max Wind Speed 34 mph    
Max Gust Speed 47 mph    
Visibility 10 miles    
Events Snow    
Averages and records for this station are not official NWS values.
T = Trace of Precipitation, MM = Missing Value Source: NWS Daily Summary

Daily Weather History Graph

Daily Weather History Graph

Search for Another Location

Airport or City:

Trip Planner

Search our weather history database for the weather conditions in past years. The results will help you decide how hot, cold, wet, or windy it might be!

Date:

Astronomy

Dec. 26, 2011 Rise Set
Actual Time 8:16 AM CST 4:48 PM CST
Civil Twilight 7:41 AM CST 5:24 PM CST
Nautical Twilight 7:02 AM CST 6:02 PM CST
Astronomical Twilight 6:25 AM CST 6:39 PM CST
Moon 9:30 AM CST (12/26) 7:26 PM CST (12/26)
Length of Visible Light 9h 42m
Length of Day
8h 31m
Waxing Crescent, 5% of the Moon is Illuminated
Dec 26
Waxing Crescent
Jan 1
First Quarter
Jan 9
Full
Jan 16
Last Quarter
Jan 23
New

Hourly Weather History & Observations

Time (CST) Temp. Windchill Dew Point Humidity Pressure Visibility Wind Dir Wind Speed Gust Speed Precip Events Conditions
12:15 AM 32.0 °F 19.5 °F 21.2 °F 64% 29.80 in 10.0 mi SSW 21.9 mph 27.6 mph N/A Snow Light Snow
12:35 AM 32.0 °F 20.5 °F 21.2 °F 64% 29.79 in 10.0 mi SSW 18.4 mph 25.3 mph 0.01 in Snow Light Snow
12:55 AM 32.0 °F 20.1 °F 21.2 °F 64% 29.78 in 10.0 mi SSW 19.6 mph 25.3 mph 0.01 in Snow Light Snow
1:15 AM 32.0 °F 20.1 °F 21.2 °F 64% 29.76 in 10.0 mi SSW 19.6 mph 28.8 mph N/A Snow Light Snow
1:35 AM 32.0 °F 20.1 °F 21.2 °F 64% 29.74 in 10.0 mi SSW 19.6 mph 26.5 mph N/A Snow Light Snow
1:55 AM 32.0 °F 19.8 °F 21.2 °F 64% 29.72 in 10.0 mi SSW 20.7 mph 29.9 mph 0.01 in Snow Light Snow
2:15 AM 32.0 °F 19.5 °F 19.4 °F 60% 29.71 in 10.0 mi SSW 21.9 mph 27.6 mph 0.01 in Snow Light Snow
2:35 AM 30.2 °F 17.8 °F 19.4 °F 64% 29.69 in 10.0 mi SSW 19.6 mph 27.6 mph 0.01 in Snow Light Snow
2:55 AM 30.2 °F 18.1 °F 19.4 °F 64% 29.69 in 10.0 mi SSW 18.4 mph 24.2 mph 0.02 in Snow Light Snow
3:15 AM 28.4 °F 17.0 °F 19.4 °F 69% 29.67 in 10.0 mi SSW 15.0 mph 20.7 mph N/A Snow Light Snow
3:35 AM 28.4 °F 16.6 °F 19.4 °F 69% 29.65 in 10.0 mi SSW 16.1 mph - N/A   Unknown
3:55 AM 30.2 °F 18.1 °F 19.4 °F 64% 29.63 in 10.0 mi SSW 18.4 mph 26.5 mph N/A Snow Light Snow
4:15 AM 32.0 °F 19.8 °F 21.2 °F 64% 29.61 in 10.0 mi SSW 20.7 mph 26.5 mph N/A Snow Light Snow
4:35 AM 32.0 °F 20.5 °F 21.2 °F 64% 29.59 in 10.0 mi SSW 18.4 mph - N/A Snow Light Snow
4:55 AM 32.0 °F 20.8 °F 21.2 °F 64% 29.57 in 10.0 mi SSW 17.3 mph 26.5 mph 0.01 in Snow Light Snow
5:15 AM 32.0 °F 19.8 °F 21.2 °F 64% 29.56 in 10.0 mi SSW 20.7 mph - N/A Snow Light Snow
5:35 AM 32.0 °F 20.5 °F 21.2 °F 64% 29.55 in 10.0 mi SSW 18.4 mph 25.3 mph N/A Snow Light Snow
5:55 AM 32.0 °F 20.5 °F 23.0 °F 69% 29.55 in 10.0 mi SW 18.4 mph 25.3 mph N/A Snow Light Snow
6:15 AM 32.0 °F 21.2 °F 23.0 °F 69% 29.54 in 10.0 mi SSW 16.1 mph 21.9 mph N/A   Unknown
6:55 AM 32.0 °F 21.6 °F 23.0 °F 69% 29.55 in 10.0 mi SW 15.0 mph - N/A   Unknown
7:15 AM 32.0 °F 20.8 °F 23.0 °F 69% 29.54 in 10.0 mi WSW 17.3 mph 23.0 mph N/A   Unknown
7:35 AM 32.0 °F 21.2 °F 23.0 °F 69% 29.53 in 10.0 mi West 16.1 mph 23.0 mph N/A   Clear
7:55 AM 32.0 °F 22.1 °F 24.8 °F 75% 29.53 in 10.0 mi West 13.8 mph - N/A   Clear
8:15 AM 32.0 °F 21.6 °F 24.8 °F 75% 29.54 in 10.0 mi West 15.0 mph 20.7 mph N/A   Clear
8:35 AM 32.0 °F 22.1 °F 24.8 °F 75% 29.54 in 10.0 mi West 13.8 mph - N/A   Clear
8:55 AM 32.0 °F 25.6 °F 24.8 °F 75% 29.54 in 10.0 mi WNW 6.9 mph - N/A   Clear
9:15 AM 37.4 °F 27.5 °F 23.0 °F 56% 29.54 in 10.0 mi WNW 18.4 mph 23.0 mph N/A   Clear
9:35 AM 39.2 °F 29.8 °F 23.0 °F 52% 29.55 in 10.0 mi West 18.4 mph 24.2 mph N/A   Clear
9:55 AM 41.0 °F 32.2 °F 23.0 °F 49% 29.56 in 10.0 mi West 18.4 mph 23.0 mph N/A   Clear
10:15 AM 44.6 °F 37.2 °F 23.0 °F 43% 29.57 in 10.0 mi West 17.3 mph 27.6 mph N/A   Clear
10:35 AM 42.8 °F 34.5 °F 24.8 °F 49% 29.57 in 10.0 mi West 18.4 mph 21.9 mph N/A   Clear
10:55 AM 41.0 °F 31.4 °F 24.8 °F 53% 29.57 in 10.0 mi West 21.9 mph 27.6 mph N/A   Clear
11:15 AM 42.8 °F 33.5 °F 23.0 °F 46% 29.56 in 10.0 mi West 23.0 mph 32.2 mph N/A   Clear
11:35 AM 44.6 °F 36.1 °F 23.0 °F 43% 29.55 in 10.0 mi West 21.9 mph 34.5 mph N/A   Clear
11:55 AM 44.6 °F 34.7 °F 23.0 °F 43% 29.54 in 10.0 mi West 29.9 mph 35.7 mph N/A   Clear
12:15 PM 44.6 °F 34.7 °F 23.0 °F 43% 29.53 in 10.0 mi West 29.9 mph 43.7 mph N/A   Clear
12:35 PM 46.4 °F 37.4 °F 23.0 °F 40% 29.52 in 10.0 mi West 28.8 mph 40.3 mph N/A   Clear
12:55 PM 48.2 °F - 23.0 °F 37% 29.51 in 10.0 mi West 32.2 mph 44.9 mph N/A   Clear
1:15 PM 48.2 °F - 23.0 °F 37% 29.50 in 10.0 mi West 33.4 mph 47.2 mph N/A   Clear
1:35 PM 46.4 °F 36.9 °F 24.8 °F 43% 29.51 in 10.0 mi West 32.2 mph 42.6 mph N/A   Clear
1:55 PM 46.4 °F 36.5 °F 24.8 °F 43% 29.51 in 10.0 mi West 34.5 mph 46.0 mph N/A   Mostly Cloudy
2:15 PM 46.4 °F 36.9 °F 28.4 °F 50% 29.52 in 10.0 mi West 32.2 mph 40.3 mph N/A   Overcast
2:35 PM 44.6 °F 34.6 °F 30.2 °F 57% 29.53 in 10.0 mi WNW 31.1 mph 44.9 mph N/A   Overcast
2:55 PM 44.6 °F 34.9 °F 32.0 °F 61% 29.54 in 10.0 mi WNW 28.8 mph 44.9 mph 0.01 in   Overcast
3:15 PM 44.6 °F 34.7 °F 32.0 °F 61% 29.54 in 10.0 mi WNW 29.9 mph 42.6 mph 0.01 in   Scattered Clouds
3:35 PM 42.8 °F 32.5 °F 32.0 °F 66% 29.56 in 10.0 mi WNW 28.8 mph 36.8 mph 0.02 in   Scattered Clouds
3:55 PM 41.0 °F 30.0 °F 32.0 °F 70% 29.58 in 10.0 mi WNW 28.8 mph 38.0 mph 0.03 in   Mostly Cloudy
4:15 PM 41.0 °F 29.8 °F 32.0 °F 70% 29.60 in 10.0 mi WNW 29.9 mph 41.4 mph 0.01 in   Mostly Cloudy
4:35 PM 41.0 °F 29.3 °F 32.0 °F 70% 29.62 in 10.0 mi NW 33.4 mph 42.6 mph 0.02 in   Mostly Cloudy
4:55 PM 39.2 °F 27.4 °F 32.0 °F 75% 29.64 in 10.0 mi NW 29.9 mph 42.6 mph 0.05 in   Overcast
5:15 PM 39.2 °F 27.4 °F 32.0 °F 75% 29.65 in 10.0 mi NW 29.9 mph 42.6 mph 0.02 in   Unknown
5:35 PM 39.2 °F 29.3 °F 32.0 °F 75% 29.67 in 10.0 mi NW 20.7 mph 40.3 mph 0.05 in   Unknown
5:55 PM 39.2 °F 28.5 °F 32.0 °F 75% 29.67 in 10.0 mi NW 24.2 mph 35.7 mph 0.06 in   Unknown
6:15 PM 39.2 °F 29.0 °F 32.0 °F 75% 29.69 in 10.0 mi NW 21.9 mph 33.4 mph N/A   Unknown
6:35 PM 39.2 °F 28.3 °F 32.0 °F 75% 29.69 in 10.0 mi NW 25.3 mph 32.2 mph 0.01 in   Unknown
6:55 PM 39.2 °F 29.8 °F 32.0 °F 75% 29.71 in 10.0 mi NW 18.4 mph - 0.01 in   Unknown
7:15 PM 39.2 °F 27.4 °F 35.6 °F 87% 29.72 in 10.0 mi NW 29.9 mph 36.8 mph N/A   Unknown
7:35 PM 37.4 °F 24.8 °F 35.6 °F 93% 29.73 in 10.0 mi WNW 31.1 mph 38.0 mph 0.02 in Snow Light Snow
7:55 PM 35.6 °F 22.7 °F 33.8 °F 93% 29.74 in 5.0 mi NW 28.8 mph 40.3 mph 0.06 in Snow Light Snow
8:15 PM 35.6 °F 24.0 °F 35.6 °F 100% 29.75 in 5.0 mi NW 23.0 mph 29.9 mph 0.03 in   Overcast
8:35 PM 33.8 °F 22.8 °F 33.8 °F 100% 29.76 in 5.0 mi NW 18.4 mph 26.5 mph 0.08 in Rain Light Rain
8:55 PM 33.8 °F 21.9 °F 33.8 °F 100% 29.77 in 4.0 mi NW 21.9 mph 31.1 mph 0.13 in   Overcast
9:15 PM 32.0 °F 20.5 °F 32.0 °F 100% 29.77 in 2.0 mi NW 18.4 mph 26.5 mph 0.15 in Snow Light Snow
9:35 PM 32.0 °F 21.2 °F 32.0 °F 100% 29.78 in 2.5 mi NW 16.1 mph 24.2 mph 0.30 in Snow Light Snow
9:55 PM 32.0 °F 20.8 °F 32.0 °F 100% 29.78 in 2.5 mi NW 17.3 mph 23.0 mph 0.36 in Snow Light Snow
10:15 PM 32.0 °F 19.8 °F 32.0 °F 100% 29.79 in 4.0 mi NW 20.7 mph 27.6 mph 0.03 in Snow Light Snow
10:35 PM 32.0 °F 19.8 °F 32.0 °F 100% 29.80 in 9.0 mi NW 20.7 mph 26.5 mph 0.03 in Rain Light Rain
10:55 PM 32.0 °F 20.1 °F 32.0 °F 100% 29.81 in 6.0 mi NW 19.6 mph 24.2 mph 0.03 in Rain Light Rain
11:15 PM 32.0 °F 19.8 °F 32.0 °F 100% 29.82 in 10.0 mi NNW 20.7 mph 26.5 mph N/A   Overcast
11:35 PM 32.0 °F 21.2 °F 32.0 °F 100% 29.84 in 10.0 mi NNW 16.1 mph 21.9 mph N/A   Overcast
11:55 PM 32.0 °F 19.8 °F 32.0 °F 100% 29.85 in 10.0 mi North 20.7 mph 25.3 mph N/A Rain Light Rain